Location: Brno
(49.2000°N, 16.6330°E)
Time: 21:41:26
(UTC+02:00)

ISS - Visible Passes

Search period start: 25 October 2014 00:00
Search period end: 03 November 2014 23:00
Orbit: 412 x 416 km, 51.6° (Epoch: 25 October)

Date Brightness Start Highest point End Pass type
(mag) Time Alt. Az. Time Alt. Az. Time Alt. Az.
25 Oct -2.1 18:38:32 10° WNW 18:41:44 42° SSW 18:44:54 10° SE visible
26 Oct -0.4 18:27:00 10° WSW 18:28:46 14° SW 18:30:31 10° SSW visible
27 Oct -0.7 17:37:09 10° W 17:39:44 21° SW 17:42:19 10° SSE visible
